Location: 相模原市立博物館
(35.5593°N, 139.3931°E)
Time: 15:32:02
(UTC+09:00)

NOAA 15 - Visible Passes

Search period start: 28 January 2022 00:00
Search period end: 07 February 2022 00:00
Orbit: 797 x 812 km, 98.7° (Epoch: 27 January)

Date Brightness Start Highest point End Pass type
(mag) Time Alt. Az. Time Alt. Az. Time Alt. Az.
28 Jan 4.8 18:11:26 10° SE 18:16:25 47° ENE 18:21:26 10° N visible
28 Jan 7.1 19:52:52 10° SW 19:56:22 18° W 19:59:54 10° NW visible
29 Jan 5.4 17:47:02 10° SE 17:51:22 27° ENE 17:55:44 10° NNE visible
29 Jan 6.3 19:26:20 10° SSW 19:30:58 32° W 19:35:39 10° NW visible
30 Jan 7.9 06:06:28 10° ENE 06:08:39 12° E 06:10:50 10° ESE visible
30 Jan 5.2 19:00:32 10° S 19:05:40 57° W 19:10:51 10° NNW visible
31 Jan 4.5 18:35:13 10° SSE 18:40:27 81° ENE 18:45:44 10° N visible
01 Feb 4.8 18:10:21 10° SE 18:15:19 45° ENE 18:20:19 10° N visible
01 Feb 7.1 19:51:40 10° SW 19:55:16 19° W 19:58:52 10° NW visible
02 Feb 5.5 17:45:58 10° ESE 17:50:16 26° ENE 17:54:36 10° NNE visible
02 Feb 6.2 19:25:11 10° SSW 19:29:52 33° W 19:34:35 10° NW visible
03 Feb 8.0 06:05:31 10° ENE 06:07:32 12° E 06:09:34 10° ESE visible
03 Feb 5.1 18:59:23 10° S 19:04:33 59° W 19:09:46 10° NNW visible
04 Feb 4.5 18:34:06 10° SSE 18:39:20 79° ENE 18:44:37 10° N visible
05 Feb 4.9 18:09:16 10° SE 18:14:12 44° ENE 18:19:13 10° N visible
05 Feb 7.1 19:50:28 10° SW 19:54:08 19° W 19:57:50 10° NW visible
06 Feb 5.5 17:44:55 10° ESE 17:49:11 26° ENE 17:53:28 10° NNE visible
06 Feb 6.2 19:24:02 10° SSW 19:28:45 34° W 19:33:31 10° NNW visible
